Location: G�ppingen
(48.7089°N, 9.6563°E)
Time: 13:53:56
(UTC+02:00)

UKube-1 - Visible Passes

Search period start: 19 October 2019 00:00
Search period end: 28 October 2019 23:00
Orbit: 613 x 619 km, 98.4° (Epoch: 19 October)

Date Brightness Start Highest point End Pass type
(mag) Time Alt. Az. Time Alt. Az. Time Alt. Az.
19 Oct ? 03:53:38 10° ENE 03:54:51 11° NE 03:56:03 10° NE visible
19 Oct ? 05:25:45 10° SSE 05:30:04 76° ENE 05:34:24 10° NNW visible
19 Oct ? 07:04:36 10° WSW 07:06:34 13° W 07:08:32 10° WNW visible
19 Oct ? 20:21:43 10° NNW 20:24:05 15° WNW 20:26:25 10° W visible
20 Oct ? 04:08:18 10° E 04:10:44 15° ENE 04:13:10 10° NNE visible
20 Oct ? 05:41:51 10° S 05:46:10 76° WSW 05:50:30 10° NNW visible
20 Oct ? 19:00:27 10° N 19:04:46 74° WNW 19:09:02 10° SSW visible
20 Oct ? 20:38:57 10° NW 20:39:58 11° NW 20:40:58 10° WNW visible
21 Oct ? 04:23:32 10° ESE 04:26:40 20° ENE 04:29:49 10° NNE visible
21 Oct ? 05:58:05 10° S 06:02:18 52° W 06:06:33 10° NNW visible
21 Oct ? 19:16:38 10° N 19:20:50 52° WNW 19:25:00 10° SW visible
22 Oct ? 04:39:01 10° ESE 04:42:37 27° ENE 04:46:16 10° N visible
22 Oct ? 06:14:29 10° SSW 06:18:29 36° W 06:22:30 10° NNW visible
22 Oct ? 19:32:53 10° N 19:36:51 37° WNW 19:40:48 10° SW visible
23 Oct ? 04:54:40 10° SE 04:58:37 37° ENE 05:02:36 10° N visible
23 Oct ? 06:31:04 10° SSW 06:34:41 26° W 06:38:20 10° NW visible
23 Oct ? 19:49:13 10° N 19:52:51 27° WNW 19:56:27 10° WSW visible
24 Oct ? 05:10:28 10° SE 05:14:39 52° ENE 05:18:51 10° N visible
24 Oct ? 06:47:53 10° SW 06:50:55 19° W 06:53:59 10° NW visible
24 Oct ? 20:05:41 10° NNW 20:08:48 20° WNW 20:11:55 10° WSW visible
25 Oct ? 03:54:28 10° ENE 03:55:31 11° NE 03:56:33 10° NE visible
25 Oct ? 05:26:25 10° SSE 05:30:42 74° ENE 05:35:02 10° N visible
25 Oct ? 07:05:09 10° WSW 07:07:13 13° W 07:09:16 10° WNW visible
25 Oct ? 18:44:59 10° NNE 18:49:18 76° ESE 18:53:36 10° S visible
25 Oct ? 20:22:19 10° NNW 20:24:44 15° WNW 20:27:09 10° W visible
26 Oct ? 04:09:02 10° E 04:11:24 15° ENE 04:13:46 10° NNE visible
26 Oct ? 05:42:30 10° S 05:46:49 78° WSW 05:51:09 10° NNW visible
26 Oct ? 19:01:05 10° NNE 19:05:24 76° WNW 19:09:41 10° SSW visible
26 Oct ? 20:39:28 10° NW 20:40:37 11° NW 20:41:47 10° WNW visible
27 Oct ? 03:24:14 10° ESE 03:27:19 20° ENE 03:30:25 10° NNE visible
27 Oct ? 04:58:44 10° S 05:02:56 54° W 05:07:12 10° NNW visible
27 Oct ? 18:17:16 10° N 18:21:28 53° WNW 18:25:38 10° SSW visible
28 Oct ? 03:39:41 10° ESE 03:43:17 26° ENE 03:44:03 25° NE visible
28 Oct ? 05:15:06 10° SSW 05:19:07 37° W 05:21:05 24° NW visible
28 Oct ? 18:33:31 10° N 18:37:30 37° WNW 18:41:27 10° SW visible
